User: anonymous   Login
Location: Caltech
(34.1382°N, 118.1253°W)
Time: 01:55:24
(UTC-08:00)
Language:

FENGYUN 3A - Orbit

View from above orbital plane
View from above orbital plane
View from above satellite
View from above satellite

Ground track
Ground track

The orbit data is extracted from the following two-line orbital elements,

1 32958U 08026A   16342.86182829  .00000023  00000-0  30569-4 0  9995
2 32958  98.4315  14.8878 0010516 112.4206 247.8089 14.19641930442190
Epoch (UTC): 07 December 2016 20:41:01
Eccentricity: 0.0010516
inclination: 98.4315°
perigee height: 819 km
apogee height: 834 km
right ascension of ascending node: 14.8878°
argument of perigee: 112.4206°
revolutions per day: 14.19641930
mean anomaly at epoch: 247.8089°
orbit number at epoch: 44219

The dashed part of the orbit path shows where the satellite is in the earth's shadow,  

DLR